Regional Weather Roundup
Issued by NWS

Home | Current Version | Previous Version | Text Only | Print | Product List | Glossary Off
Versions: 1 2 3 4 5 6 7 8 9 10 11 12 13 14 15 16 17 18 19 20 21 22 23 24 25 26 27 28 29 30 31 32 33 34 35 36 37 38 39 40 41 42 43 44 45 46 47 48 49 50

000
ASUS43 KIND 281609
RWRIN

WEATHER ROUNDUP FOR INDIANA
NATIONAL WEATHER SERVICE INDIANAPOLIS IN
1100 AM EST WED JAN 28 2015

NOTE: "FAIR" INDICATES FEW OR NO CLOUDS BELOW 12,000 FEET WITH NO
SIGNIFICANT WEATHER AND/OR OBSTRUCTIONS TO VISIBILITY.

* - STATION DOES NOT REPORT WEATHER SUCH AS PRECIPITATION OR FOG.

+ - STATION NOT QUALITY CONTROLLED BY THE NATIONAL WEATHER SERVICE.
    USE DATA WITH CAUTION...ESPECIALLY DEWPOINT AND RELATIVE
    HUMIDITY OBSERVATIONS.

INZ001>003-010>013-019-020-281700-
NORTHWEST INDIANA

CITY           SKY/WX    TMP DP  RH WIND       PRES   REMARKS
GARY /AIRPORT/ PTSUNNY   30  10  43 SE9       30.29F WCI  22
KNOX *+        SUNNY     27   2  35 S10       30.29F WCI  17
LA PORTE +     SUNNY     28  17  64 S9        30.30S WCI  19
MICHIGAN CITY+ SUNNY     28  12  50 S6        30.30S WCI  22
MONTICELLO +   SUNNY     25  16  68 SE5       30.30F WCI  19
RENSSELAER +   MOSUNNY   28  23  80 S12       30.30R WCI  18
VALPARAISO     SUNNY     25  15  66 S10       30.29F WCI  15

$$

LMZ046-743>745-281700-
SOUTHERN LAKE MICHIGAN

STATION/POSITION TIME  TEMP WIND        PRES
                       AIR  DIR/SP/G
                 (UTC) (F)  (DEG/KT/KT) (MB)
MICHIGAN CITY    1600   26  150/ 12/ 16   N/A

$$

INZ004-005-014>016-021>024-281700-
NORTH CENTRAL INDIANA

CITY           SKY/WX    TMP DP  RH WIND       PRES   REMARKS
ELKHART        SUNNY     25   9  50 S14       30.31F WCI  13
GOSHEN         SUNNY     25  12  58 SE12      30.31F WCI  14
LOGANSPORT +   SUNNY     25  18  74 SE9       30.32F WCI  15
PERU/GRISSOM   SUNNY     22  15  74 SE9       30.31F WCI  12
ROCHESTER +    SUNNY     28  18  64 SE9       30.32S WCI  20
SOUTH BEND     SUNNY     27  11  51 S14       30.30F WCI  16
WARSAW +       SUNNY     27  12  54 SE5       30.32S WCI  21

$$

INZ006>009-017-018-025>027-281700-
NORTHEAST INDIANA

CITY           SKY/WX    TMP DP  RH WIND       PRES   REMARKS
ANGOLA *+      SUNNY     21  10  63 S8        30.32S WCI  12
AUBURN +       SUNNY     25  12  58 SE6       30.35S WCI  18
FORT WAYNE     MOSUNNY   20  12  71 SE8       30.35F WCI  10
HUNTINGTON +   SUNNY     23   8  52 SE6       30.34S WCI  15

$$

INZ028-029-035-036-043>045-051>053-281700-
WEST CENTRAL INDIANA

CITY           SKY/WX    TMP DP  RH WIND       PRES   REMARKS
CRAWFORDSVL +  SUNNY     28  14  56 S12       30.30F WCI  17
GREENCASTLE +  SUNNY     28  14  54 SE10      30.32S WCI  19
LAFAYETTE      MOSUNNY   28  18  66 S8        30.30F WCI  20
TERRE HAUTE    MOSUNNY   28  18  66 SE13      30.33S WCI  17

$$

INZ030>032-037>040-046>048-054>057-064-065-281700-
CENTRAL INDIANA

CITY           SKY/WX    TMP DP  RH WIND       PRES   REMARKS
ANDERSON       SUNNY     25  16  68 NE12      30.35S WCI  14
CP ATTERBURY + SUNNY     28  19  69 SE9       30.35F WCI  20
COLUMBUS       SUNNY     27  14  59 SE12      30.37S WCI  16
GREENWOOD *+   SUNNY     27  16  63 S12       30.34  WCI  16
INDIANAPOLIS   PTSUNNY   25  17  72 S10       30.33S WCI  15
-EAGLE CREEK   SUNNY     27  16  63 S9        30.32S WCI  18
KOKOMO *+      SUNNY     25  16  68 SE14      30.32F WCI  13
MARION +       SUNNY     23  15  71 SE9       30.34S WCI  13
MT COMFORT *+  SUNNY     28  12  50 SE9       30.33F WCI  20
SHELBYVILLE    SUNNY     28  17  63 SE13      30.35S WCI  17
ZIONSVILLE +   SUNNY     28  17  62 SE10      30.31F WCI  19

$$

INZ033-034-041-042-049-050-058-059-281700-
EAST CENTRAL INDIANA

CITY           SKY/WX    TMP DP  RH WIND       PRES   REMARKS
MUNCIE         SUNNY     24  14  65 SE8       30.33S WCI  15

$$

INZ060-061-067>069-081>083-085>088-281700-
SOUTHWEST INDIANA

CITY           SKY/WX    TMP DP  RH WIND       PRES   REMARKS
EVANSVILLE     SUNNY     34  21  59 SE9       30.35F WCI  27
HUNTINGBURG *+ SUNNY     28  16  59 SE8       30.37R WCI  20
WASHINGTON +   MOSUNNY   29  13  51 S8        30.35S WCI  21

$$

INZ062-063-066-070>080-084-089>092-281700-
SOUTH CENTRAL AND SOUTHEAST INDIANA

CITY           SKY/WX    TMP DP  RH WIND       PRES   REMARKS
BLOOMINGTON    SUNNY     27  16  63 SE14      30.33R WCI  16

$$




USA.gov is the U.S. government's official web portal to all federal, state and local government web resources and services.